Regional Weather Roundup
Issued by NWS

Home | Current Version | Previous Version | Text Only | Print | Product List | Glossary On
Versions: 1 2 3 4 5 6 7 8 9 10 11 12 13 14 15 16 17 18 19 20 21 22 23 24 25 26 27 28 29 30 31 32 33 34 35 36 37 38 39 40 41 42 43 44 45 46 47 48 49 50
000
ASUS43 KLSX 070159
RWRMO

WEATHER SUMMARY FOR MISSOURI
NATIONAL WEATHER SERVICE SPRINGFIELD MO
900 PM CDT WED MAY 06 2015

NOTE: "FAIR" INDICATES FEW OR NO CLOUDS BELOW 12,000 FEET WITH NO
       SIGNIFICANT WEATHER AND/OR OBSTRUCTIONS TO VISIBILITY.
       CURRENT SKY AND/OR WEATHER CONDITIONS ARE NOT AVAILABLE FOR
       CHILLICOTHE AND FARMINGTON.

MOZ001>031-035>038-043-044-053-054-070300-
...NORTHERN AND WESTERN MISSOURI...

CITY           SKY/WX    TMP DP  RH WIND       PRES   REMARKS
KANSAS CTY INT PTCLDY    72  58  61 SE22G28   29.83F
KANSAS C DTWN  CLEAR     74  56  53 VRB6G17   29.84S
LEE`S SUMMIT   CLEAR     73  55  53 SE12G20   29.86F
ST JOSEPH      PTCLDY    69  62  78 SE15      29.81F
CHILLICOTHE      N/A     69  61  75 SE6       29.90F
KIRKSVILLE     CLEAR     67  60  78 SE8       29.95S

$$
MOZ066>068-077>081-088>096-101>105-070300-
...SOUTHWEST MISSOURI...

CITY           SKY/WX    TMP DP  RH WIND       PRES   REMARKS
SPRINGFIELD    PTCLDY    72  55  55 SE13      29.94S
JOPLIN         MOCLDY    73  55  53 MISG      29.89S

$$
MOZ032>034-039>042-045>050-055>058-069>072-070300-
...CENTRAL MISSOURI...

CITY           SKY/WX    TMP DP  RH WIND       PRES   REMARKS
COLUMBIA       CLOUDY    74  55  51 SE9       29.97R
JEFFERSON CITY CLOUDY    75  55  49 SE7       29.97R
ROLLA          PTCLDY    71  53  52 S8        30.00R
SEDALIA        CLEAR     72  55  55 SE10      29.92F
OSAGE BEACH    CLEAR     73  54  49 SE6       29.97F

$$
MOZ051-052-059>065-070300-
...EAST CENTRAL MISSOURI...

CITY           SKY/WX    TMP DP  RH WIND       PRES   REMARKS
ST LOUIS INTL  PTCLDY    80  50  34 S10       30.02R
SPIRIT OF STL  CLEAR     76  50  40 CALM      29.99R
ST CHARLES     CLEAR     72  50  45 SE8       29.99R

$$
MOZ072>076-082>087-097>100-106>115-070300-
...SOUTH CENTRAL AND SOUTHEAST MISSOURI...

CITY           SKY/WX    TMP DP  RH WIND       PRES   REMARKS
CAPE GIRARDEAU CLEAR     70  55  59 SE7       30.03S
FARMINGTON     CLEAR     72  52  49 SE7       30.07S
POPLAR BLUFF   CLEAR     70  51  51 E6        30.02R
WEST PLAINS    MOCLDY    70  54  56 S3        30.03R

$$


USA.gov is the U.S. government's official web portal to all federal, state and local government web resources and services.